TimeEST,TemperatureF,Dew PointF,Humidity,Sea Level PressureIn,VisibilityMPH,Wind Direction,Wind SpeedMPH,Gust SpeedMPH,PrecipitationIn,Events,Conditions,WindDirDegrees,DateUTC
12:53 AM,27.0,24.1,89,30.43,10.0,Calm,Calm,-,N/A,,Clear,0,2012-12-13 05:53:00
1:53 AM,27.0,23.0,85,30.43,10.0,Calm,Calm,-,N/A,,Clear,0,2012-12-13 06:53:00
2:53 AM,26.1,21.9,84,30.42,10.0,Calm,Calm,-,N/A,,Clear,0,2012-12-13 07:53:00
3:53 AM,25.0,21.9,88,30.43,10.0,Calm,Calm,-,N/A,,Clear,0,2012-12-13 08:53:00
4:53 AM,26.1,21.9,84,30.45,10.0,Calm,Calm,-,N/A,,Clear,0,2012-12-13 09:53:00
5:53 AM,35.1,28.9,78,30.42,10.0,NNE,5.8,-,N/A,,Clear,20,2012-12-13 10:53:00
6:53 AM,26.1,21.9,84,30.47,10.0,Calm,Calm,-,N/A,,Clear,0,2012-12-13 11:53:00
7:53 AM,26.1,21.9,84,30.48,10.0,Calm,Calm,-,N/A,,Clear,0,2012-12-13 12:53:00
8:53 AM,30.9,27.0,85,30.47,10.0,Calm,Calm,-,N/A,,Clear,0,2012-12-13 13:53:00
9:53 AM,43.0,28.0,56,30.46,10.0,NNE,9.2,-,N/A,,Clear,20,2012-12-13 14:53:00
10:53 AM,45.0,26.1,48,30.47,10.0,NNE,8.1,-,N/A,,Clear,30,2012-12-13 15:53:00
11:53 AM,45.0,25.0,46,30.43,10.0,NNE,6.9,-,N/A,,Clear,20,2012-12-13 16:53:00
12:53 PM,45.0,25.0,46,30.41,10.0,ENE,9.2,-,N/A,,Clear,60,2012-12-13 17:53:00
1:53 PM,46.0,26.1,46,30.40,10.0,North,6.9,-,N/A,,Clear,10,2012-12-13 18:53:00
2:53 PM,45.0,24.1,44,30.40,10.0,NE,3.5,-,N/A,,Clear,50,2012-12-13 19:53:00
3:53 PM,43.0,23.0,45,30.39,10.0,Calm,Calm,-,N/A,,Clear,0,2012-12-13 20:53:00
4:53 PM,33.1,21.9,64,30.39,10.0,Calm,Calm,-,N/A,,Clear,0,2012-12-13 21:53:00
7:53 PM,25.0,19.9,81,30.38,10.0,Calm,Calm,-,N/A,,Clear,0,2012-12-14 00:53:00
8:53 PM,23.0,19.0,85,30.37,10.0,Calm,Calm,-,N/A,,Clear,0,2012-12-14 01:53:00
9:53 PM,21.9,18.0,85,30.36,10.0,Calm,Calm,-,N/A,,Clear,0,2012-12-14 02:53:00
10:53 PM,21.9,18.0,85,30.35,10.0,Calm,Calm,-,N/A,,Clear,0,2012-12-14 03:53:00
11:53 PM,21.9,18.0,85,30.34,10.0,Calm,Calm,-,N/A,,Clear,0,2012-12-14 04:53:00